Location: Newark
(35.1044°N, 77.3364°W)
Time: 02:10:13
(UTC+00:00)

ISS - Visible Passes

Search period start: 14 December 2019 00:00
Search period end: 24 December 2019 00:00
Orbit: 411 x 421 km, 51.6° (Epoch: 14 December)

Date Brightness Start Highest point End Pass type
(mag) Time Alt. Az. Time Alt. Az. Time Alt. Az.
19 Dec -0.9 11:30:11 10° S 11:32:51 23° SE 11:35:32 10° ENE visible
20 Dec -0.4 10:43:04 10° SSE 10:44:28 12° SE 10:45:53 10° ESE visible
21 Dec -3.7 11:28:59 10° SW 11:32:16 82° SE 11:35:36 10° NE visible
22 Dec -2.4 10:40:39 10° SSW 10:43:46 40° SE 10:46:54 10° ENE visible
23 Dec -1.2 09:55:40 20° ESE 09:55:40 20° ESE 09:57:52 10° E visible
23 Dec -2.9 11:28:54 10° W 11:31:53 31° NW 11:34:54 10° NNE visible
